Flag for U.S.A. Weather past 2 weeks in Oxnard, California, U.S.A.

Now
61 °F

Overcast.


Feels Like: 61 °F
Forecast: 54 / 62 °F
Wind: 10 mph from West

Location: Oxnard Airport

Current Time: Apr 21, 2015 at 4:24:27 PM

Latest Report: Apr 21, 2015 at 3:51 PM


Visibility: 10 mi

Pressure: 29.90 "Hg

Humidity: 62%

Dew point: 48 °F

Location of OxnardLocation

Historic Weather in Oxnard — Graph

°F

Oxnard temperature yesterday

Maximum temperature yesterday: 64 °F (at 2:51 PM)
Minimum temperature yesterday: 53 °F (at 2:51 AM)
Average temperature yesterday: 58 °F

Past Weeks' High & Low Weather Summary

 TemperatureHumidityPressure
High80 °F (Apr 16, 11:51 AM)93% (Apr 14, 6:51 AM)30.12 "Hg (Apr 14, 6:51 AM)
Low46 °F (Apr 7, 5:51 AM)7% (Apr 16, 11:51 AM)29.84 "Hg (Apr 20, 6:51 PM)
Average59 °F63%29.97 "Hg
* Reported Apr 6 2:51 PM — Apr 21 2:51 PM, Oxnard, Weather by CustomWeather, © 2015

Note: Actual official high and low records may vary slightly from our data, if they occured in-between our weather recording intervals... More about our weather records

Advertising

Oxnard weather history for previous 24 hours

 ConditionsComfort  
Time TempWeatherWind HumidityBarometerVisibility
2:51 PM
Tue, Apr 21
63 °FOvercast.12 mph63%29.92 "Hg10 mi
1:51 PM64 °FScattered clouds.9 mph58%29.93 "Hg10 mi
12:51 PM64 °FOvercast.12 mph61%29.94 "Hg10 mi
11:51 AM62 °FOvercast.8 mph58%29.95 "Hg10 mi
10:51 AM62 °FMostly cloudy.6 mph58%29.95 "Hg10 mi
9:51 AM62 °FOvercast.6 mph60%29.94 "Hg9 mi
8:51 AM60 °FOvercast.3 mph67%29.94 "Hg9 mi
7:51 AM58 °FOvercast.3 mph75%29.93 "Hg8 mi
6:51 AM58 °FOvercast.No wind75%29.92 "Hg8 mi
5:51 AM57 °FOvercast.No wind78%29.90 "Hg9 mi
4:51 AM57 °FOvercast.3 mph78%29.89 "Hg9 mi
3:51 AM57 °FOvercast.5 mph78%29.90 "Hg10 mi
2:51 AM57 °FOvercast.No wind78%29.89 "Hg10 mi
1:51 AM57 °FOvercast.No wind78%29.90 "Hg10 mi
12:51 AM56 °FOvercast.No wind81%29.90 "Hg10 mi
11:51 PM
Mon, Apr 20
56 °FOvercast.No wind84%29.90 "Hg9 mi
10:51 PM57 °FClear.3 mph81%29.89 "Hg9 mi
9:51 PM56 °FClear.5 mph84%29.89 "Hg9 mi
8:51 PM56 °FClear.9 mph84%29.87 "Hg10 mi
7:51 PM57 °FSunny.12 mph81%29.85 "Hg10 mi
6:51 PM58 °FSunny.13 mph75%29.84 "Hg10 mi
5:51 PM60 °FSunny.14 mph72%29.84 "Hg9 mi
4:51 PM61 °FSunny.13 mph67%29.85 "Hg10 mi
Weather by CustomWeather, © 2015

See weather overviewHow to use our weather pages